Hourly Data Report for September 14, 2020

GIMLI CLIMATE
MANITOBA
Current Station Operator: ECCC - MSC

50°38'00.000" N
97°03'00.000" W
230.10 m
5031042
71748
PGH

Download Data

Hourly Data (September 2020)
Hourly Data Report for September 14, 2020
TIME Temp Definition
°C
Dew Point Definition
°C
Rel Hum Definition
%
Wind Dir Definition
10's deg

Wind Spd Definition
km/h
Visibility Definition
km
Stn Press Definition
kPa
Hmdx Definition


Wind Chill Definition


Weather Definition


00:00 1.1 -0.3 91 0 1   99.95     LegendNANA
01:00 0.5 -0.8 91 30 1   99.98     LegendNANA
02:00 0.2 -1.0 92 23 4   99.97     LegendNANA
03:00 0.4 -0.7 92 25 1   99.99     LegendNANA
04:00 1.6 0.6 93 17 3   99.95     LegendNANA
05:00 0.5 -0.8 91 22 4   99.95     LegendNANA
06:00 0.9 -0.2 92 21 5   99.91     LegendNANA
07:00 1.5 0.6 93 21 4   99.92     LegendNANA
08:00 5.7 4.0 89 18 8   99.89     LegendNANA
09:00 9.1 3.5 68 17 10   99.82     LegendNANA
10:00 11.6 2.9 55 16 14   99.70     LegendNANA
11:00 12.8 3.5 53 16 13   99.61     LegendNANA
12:00 13.8 3.5 50 17 17   99.53     LegendNANA
13:00 14.0 4.7 53 13 15   99.41     LegendNANA
14:00 14.1 5.0 54 12 14   99.29     LegendNANA
15:00 14.2 6.4 59 11 14   99.21     LegendNANA
16:00 13.7 6.1 60 9 12   99.10     LegendNANA
17:00 14.0 6.6 61 8 12   99.01     LegendNANA
18:00 13.7 6.9 64 9 9   98.96     LegendNANA
19:00 13.8 7.5 66 8 12   98.95     LegendNANA
20:00 13.7 8.0 68 10 10   98.91     LegendNANA
21:00 13.5 8.0 69 8 13   98.87     LegendNANA
22:00 13.1 8.1 72 6 15   98.80     LegendNANA
23:00 12.9 8.1 73 8 14   98.72     LegendNANA

Notes on Data Quality.

Legend

  • E = Estimated
  • M = Missing
  • NA = Not Available*
  • [empty] = Indicates an unobserved value
Date modified: